Date,TemperatureHighF,TemperatureAvgF,TemperatureLowF,DewpointHighF,DewpointAvgF,DewpointLowF,HumidityHigh,HumidityAvg,HumidityLow,PressureMaxIn,PressureMinIn,WindSpeedMaxMPH,WindSpeedAvgMPH,GustSpeedMaxMPH,PrecipitationSumIn
2013-3-1,20,14,7,-100,-100,-100,0,0,100,30.34,30.20,17,8,0,0.00
2013-3-2,22,15,8,-100,-100,-100,0,0,100,30.31,30.00,21,11,0,0.00
2013-3-3,29,23,16,-100,-100,-100,0,0,100,30.01,29.73,27,16,0,0.00
2013-3-4,28,24,19,-100,-100,-100,0,0,100,29.89,29.69,2,1,0,0.00
2013-3-5,21,18,13,-100,-100,-100,0,0,100,30.33,29.86,3,1,0,0.00
2013-3-6,20,14,9,-100,-100,-100,0,0,100,30.38,30.21,1,0,0,0.00
2013-3-7,29,21,13,-100,-100,-100,0,0,100,30.23,30.09,29,10,0,0.00
2013-3-8,32,25,21,-100,-100,-100,0,0,100,30.18,29.92,28,14,0,0.00
2013-3-9,32,28,23,-100,-100,-100,0,0,100,29.94,29.65,19,8,0,0.00
2013-3-10,23,16,10,-100,-100,-100,0,0,100,30.05,29.87,37,20,0,0.00
2013-3-11,21,13,2,-100,-100,-100,0,0,100,29.99,29.80,27,10,0,0.00
2013-3-12,22,18,11,-100,-100,-100,0,0,100,30.27,29.86,35,21,0,0.00
2013-3-13,26,14,2,-100,-100,-100,0,0,100,30.33,30.04,29,10,0,0.00
2013-3-14,35,29,24,-100,-100,-100,0,0,100,30.10,29.97,29,12,0,0.00
2013-3-15,32,24,20,-100,-100,-100,0,0,100,30.01,29.78,31,17,0,0.00
2013-3-16,21,9,1,-100,-100,-100,0,0,100,30.22,29.93,24,12,0,0.00
2013-3-17,26,13,1,-100,-100,-100,0,0,100,30.20,29.55,52,22,0,0.00
2013-3-18,29,11,3,-100,-100,-100,0,0,100,29.98,29.51,40,28,0,0.00
2013-3-19,14,5,-4,-100,-100,-100,0,0,100,30.31,29.97,30,14,0,0.00
2013-3-20,13,4,-5,-100,-100,-100,0,0,100,30.34,30.11,24,11,0,0.00
2013-3-21,19,8,-3,-100,-100,-100,0,0,100,30.12,29.96,21,10,0,0.00
2013-3-22,26,13,3,-100,-100,-100,0,0,100,30.05,29.99,13,8,0,0.00
2013-3-23,23,18,13,-100,-100,-100,0,0,100,30.15,30.05,17,7,0,0.00
2013-3-24,22,18,14,-100,-100,-100,0,0,100,30.14,30.03,29,16,0,0.00
2013-3-25,22,18,11,-100,-100,-100,0,0,100,30.29,30.11,29,20,0,0.00
2013-3-26,25,16,9,-100,-100,-100,0,0,100,30.31,30.20,14,6,0,0.00
2013-3-27,37,26,13,-100,-100,-100,0,0,100,30.25,30.19,21,14,0,0.00
2013-3-28,43,32,26,-100,-100,-100,0,0,100,30.24,30.18,22,12,0,0.00
2013-3-29,53,40,32,-100,-100,-100,0,0,100,30.21,29.96,27,14,0,0.00
2013-3-30,42,35,28,-100,-100,-100,0,0,100,29.98,29.91,23,12,0,0.00
2013-3-31,30,26,17,-100,-100,-100,0,0,100,30.18,29.90,36,19,0,0.00